This is the latest recevied weather packets stored in our database for station/object VK3CG. If no packets are shown the sender has not sent any weather packets the latest 10 day(s).
| Time | Temp. | Humidity | Pressure | Rain* | Wind** | Luminosity | Snow |
|---|---|---|---|---|---|---|---|
| 1777318231 | 7.22° C | 68% | 1035.9 hPa | 0 mm | - | 0 W/m² | - |
| 1777317330 | 7.78° C | 68% | 1035.9 hPa | 0 mm | - | 0 W/m² | - |
| 1777316446 | 7.78° C | 68% | 1035.9 hPa | 0 mm | - | 0 W/m² | - |
| 1777315527 | 8.33° C | 68% | 1035.9 hPa | 0 mm | - | 0 W/m² | - |
| 1777314629 | 8.33° C | 68% | 1035.8 hPa | 0 mm | - | 0 W/m² | - |
| 1777313728 | 8.33° C | 68% | 1035.6 hPa | 0 mm | - | 0 W/m² | - |
| 1777312823 | 8.89° C | 68% | 1035.5 hPa | 0 mm | - | 0 W/m² | - |
| 1777311923 | 9.44° C | 68% | 1035.3 hPa | 0 mm | - | 0 W/m² | - |
| 1777311022 | 9.44° C | 68% | 1035.4 hPa | 0 mm | - | 0 W/m² | - |
| 1777310131 | 9.44° C | 68% | 1035.5 hPa | 0 mm | - | 0 W/m² | - |
| 1777309220 | 10° C | 68% | 1035.6 hPa | 0 mm | - | 0 W/m² | - |
| 1777308333 | 10° C | 68% | 1035.6 hPa | 0 mm | - | 0 W/m² | - |
| 1777307424 | 10° C | 67% | 1035.7 hPa | 0 mm | - | 0 W/m² | - |
| 1777306515 | 10° C | 67% | 1035.9 hPa | 0 mm | - | 0 W/m² | - |
| 1777305614 | 10° C | 67% | 1036 hPa | 0 mm | - | 0 W/m² | - |
| 1777304711 | 10° C | 67% | 1036.2 hPa | 0 mm | - | 0 W/m² | - |
| 1777303811 | 10° C | 67% | 1036.3 hPa | 0 mm | - | 0 W/m² | - |
| 1777302908 | 9.44° C | 67% | 1036.3 hPa | 0 mm | - | 0 W/m² | - |
| 1777302008 | 9.44° C | 66% | 1036.4 hPa | 0 mm | - | 0 W/m² | - |
| 1777301103 | 8.89° C | 66% | 1036.5 hPa | 0 mm | - | 0 W/m² | - |
| 1777300202 | 8.89° C | 66% | 1036.6 hPa | 0 mm | - | 0 W/m² | - |
| 1777299372 | 8.89° C | 65% | 1036.6 hPa | 0 mm | - | 0 W/m² | - |
| 1777298461 | 8.33° C | 65% | 1036.7 hPa | 0 mm | - | 0 W/m² | - |
| 1777297558 | 8.33° C | 65% | 1036.7 hPa | 0 mm | - | 0 W/m² | - |
| 1777296657 | 7.78° C | 64% | 1036.8 hPa | 0 mm | - | 0 W/m² | - |
* Rain latest hour (hover to see other rain measurements)
** Current wind speed in m/s (hover to see current wind gust speed)